This is the latest recevied weather packets stored in our database for station/object KJ6APE. If no packets are shown the sender has not sent any weather packets the latest 10 day(s).
| Time | Temp. | Humidity | Pressure | Rain* | Wind** | Luminosity | Snow |
|---|---|---|---|---|---|---|---|
| 1778127468 | 17.22° C | 71% | 1018.7 hPa | 0 mm | - | 0 W/m² | - |
| 1778127164 | 17.22° C | 71% | 1018.6 hPa | 0 mm | - | 0 W/m² | - |
| 1778126861 | 17.22° C | 71% | 1018.5 hPa | 0 mm | - | 0 W/m² | - |
| 1778126557 | 17.22° C | 71% | 1018.8 hPa | 0 mm | - | 0 W/m² | - |
| 1778126253 | 17.22° C | 72% | 1018.6 hPa | 0 mm | - | 0 W/m² | - |
| 1778125949 | 16.67° C | 75% | 1018.5 hPa | 0 mm | - | 0 W/m² | - |
| 1778125646 | 16.67° C | 75% | 1018.4 hPa | 0 mm | - | 0 W/m² | - |
| 1778125343 | 17.22° C | 74% | 1018.6 hPa | 0 mm | - | 0 W/m² | - |
| 1778125042 | 17.22° C | 73% | 1018.5 hPa | 0 mm | - | 0 W/m² | - |
| 1778124739 | 17.78° C | 72% | 1018.3 hPa | 0 mm | - | 0 W/m² | - |
| 1778124436 | 17.78° C | 71% | 1018.5 hPa | 0 mm | - | 0 W/m² | - |
| 1778124132 | 18.33° C | 70% | 1018.3 hPa | 0 mm | - | 0 W/m² | - |
| 1778123829 | 18.89° C | 69% | 1018.4 hPa | 0 mm | - | 1 W/m² | - |
| 1778123526 | 18.89° C | 66% | 1018.6 hPa | 0 mm | - | 2 W/m² | - |
| 1778123222 | 18.89° C | 65% | 1018.3 hPa | 0 mm | - | 3 W/m² | - |
| 1778122920 | 19.44° C | 64% | 1018.4 hPa | 0 mm | - | 6 W/m² | - |
| 1778122617 | 20° C | 64% | 1018.1 hPa | 0 mm | - | 9 W/m² | - |
| 1778122314 | 20° C | 62% | 1018.2 hPa | 0 mm | - | 13 W/m² | - |
| 1778122012 | 20.56° C | 62% | 1018 hPa | 0 mm | - | 17 W/m² | - |
| 1778121709 | 20.56° C | 61% | 1018.1 hPa | 0 mm | - | 22 W/m² | - |
| 1778121404 | 21.11° C | 60% | 1017.9 hPa | 0 mm | - | 30 W/m² | - |
| 1778121102 | 21.67° C | 58% | 1017.7 hPa | 0 mm | - | 37 W/m² | - |
| 1778120799 | 21.67° C | 57% | 1017.7 hPa | 0 mm | - | 46 W/m² | - |
| 1778120494 | 22.22° C | 57% | 1017.6 hPa | 0 mm | - | 55 W/m² | - |
| 1778120191 | 22.22° C | 56% | 1017.7 hPa | 0 mm | - | 58 W/m² | - |
* Rain latest hour (hover to see other rain measurements)
** Current wind speed in m/s (hover to see current wind gust speed)